K9DC Weather Reports


time (UTC)temp
C
wind
direction
speed
KPH
gust
KPH
rain 1hr
cm
rain 24hr
cm
rain mn
cm
humidity
%
barometer
mb
20260905224503 30 324 3.2 12.9 0.00 0.00 0.00 64 1010.6
20260905224004 30 322 4.8 14.5 0.00 0.00 0.00 63 1010.5
20260905223504 30 315 4.8 14.5 0.00 0.00 0.00 62 1010.7
20260905223003 30 316 4.8 12.9 0.00 0.00 0.00 59 1010.8
20260905222504 30 312 3.2 11.3 0.00 0.00 0.00 57 1010.9
20260905222004 30 296 3.2 11.3 0.00 0.00 0.00 56 1010.8
20260905221503 30 308 1.6 11.3 0.00 0.00 0.00 57 1010.9
20260905221003 30 312 1.6 8.0 0.00 0.00 0.00 57 1010.9
20260905220505 30 310 1.6 11.3 0.00 0.00 0.00 60 1010.7
20260905220004 30 310 3.2 16.1 0.00 0.00 0.00 63 1010.4
20260905215503 30 312 8.0 25.7 0.00 0.00 0.00 64 1010.4
20260905215003 30 311 8.0 25.7 0.00 0.00 0.00 65 1010.4
20260905214504 31 308 4.8 24.1 0.00 0.00 0.00 65 1010.5
20260905214004 31 307 3.2 8.0 0.00 0.00 0.00 65 1010.8
20260905213504 31 306 3.2 6.4 0.00 0.00 0.00 64 1010.8
20260905213003 31 307 1.6 6.4 0.00 0.00 0.00 64 1010.9
20260905212504 31 306 0.0 4.8 0.00 0.00 0.00 63 1010.8
20260905212006 32 307 1.6 4.8 0.00 0.00 0.00 62 1010.5
20260905211504 32 307 1.6 6.4 0.00 0.00 0.00 62 1010.8
20260905211005 32 307 3.2 8.0 0.00 0.00 0.00 60 1010.8
20260905210504 32 305 3.2 12.9 0.00 0.00 0.00 59 1010.4
20260905210004 32 304 3.2 12.9 0.00 0.00 0.00 59 1010.9
20260905205504 32 306 4.8 12.9 0.00 0.00 0.00 58 1010.8
20260905205005 32 304 4.8 16.1 0.00 0.00 0.00 56 1010.9
20260905204504 32 304 4.8 16.1 0.00 0.00 0.00 56 1011.1
20260905204003 33 311 4.8 16.1 0.00 0.00 0.00 55 1011.0
20260905203504 33 312 6.4 19.3 0.00 0.00 0.00 55 1011.0
20260905203005 33 295 6.4 19.3 0.00 0.00 0.00 53 1011.0
20260905202504 33 286 4.8 16.1 0.00 0.00 0.00 53 1010.9
20260905202003 33 301 4.8 16.1 0.00 0.00 0.00 53 1011.0
20260905201503 34 296 3.2 14.5 0.00 0.00 0.00 52 1011.3
20260905201003 34 290 4.8 14.5 0.00 0.00 0.00 52 1011.2
20260905200504 34 280 4.8 14.5 0.00 0.00 0.00 53 1011.1
20260905200004 35 267 3.2 12.9 0.00 0.00 0.00 50 1011.2
20260905195503 35 260 3.2 9.7 0.00 0.00 0.00 50 1011.2
20260905195004 35 255 4.8 16.1 0.00 0.00 0.00 50 1011.1
20260905194503 35 270 6.4 16.1 0.00 0.00 0.00 50 1011.2
20260905194004 35 299 6.4 17.7 0.00 0.00 0.00 49 1011.3
20260905193504 35 295 6.4 17.7 0.00 0.00 0.00 48 1011.4
20260905193005 35 275 6.4 17.7 0.00 0.00 0.00 49 1011.5
20260905192503 35 276 8.0 19.3 0.00 0.00 0.00 48 1011.5
20260905192003 35 267 6.4 19.3 0.00 0.00 0.00 48 1011.6
20260905191504 35 250 6.4 17.7 0.00 0.00 0.00 47 1011.6
20260905191004 35 250 4.8 14.5 0.00 0.00 0.00 48 1011.7
20260905190503 35 261 4.8 16.1 0.00 0.00 0.00 49 1011.7
20260905190003 35 265 6.4 16.1 0.00 0.00 0.00 48 1011.9
20260905185503 34 270 4.8 16.1 0.00 0.00 0.00 48 1011.8
20260905185004 34 283 4.8 12.9 0.00 0.00 0.00 49 1011.9
20260905184504 34 291 4.8 11.3 0.00 0.00 0.00 52 1012.1
20260905184003 34 287 4.8 17.7 0.00 0.00 0.00 48 1012.0
20260905183504 34 290 3.2 17.7 0.00 0.00 0.00 49 1012.2
20260905183003 34 304 3.2 14.5 0.00 0.00 0.00 48 1012.2
20260905182504 34 326 3.2 11.3 0.00 0.00 0.00 48 1012.3
20260905182003 34 304 4.8 16.1 0.00 0.00 0.00 48 1012.4
20260905181504 34 277 6.4 16.1 0.00 0.00 0.00 47 1012.4
20260905181003 34 233 3.2 14.5 0.00 0.00 0.00 48 1012.4
20260905180504 34 208 3.2 14.5 0.00 0.00 0.00 48 1012.4
20260905180004 34 255 4.8 14.5 0.00 0.00 0.00 48 1012.5
20260905175503 34 267 4.8 14.5 0.00 0.00 0.00 46 1012.6
20260905175003 34 238 4.8 14.5 0.00 0.00 0.00 47 1012.8
20260905174505 34 225 1.6 8.0 0.00 0.00 0.00 45 1012.8
20260905174007 34 247 0.0 3.2 0.00 0.00 0.00 46 1012.8
20260905173504 34 247 1.6 4.8 0.00 0.00 0.00 46 1012.7
20260905173004 33 250 3.2 12.9 0.00 0.00 0.00 49 1012.8
20260905172503 33 254 3.2 12.9 0.00 0.00 0.00 48 1012.9
20260905172004 33 256 1.6 9.7 0.00 0.00 0.00 47 1012.9
20260905171503 33 239 1.6 6.4 0.00 0.00 0.00 46 1013.1
20260905171005 33 211 6.4 14.5 0.00 0.00 0.00 48 1013.1
20260905170504 33 192 4.8 14.5 0.00 0.00 0.00 47 1013.1
20260905170003 33 165 1.6 12.9 0.00 0.00 0.00 47 1013.2
20260905165503 33 188 3.2 14.5 0.00 0.00 0.00 49 1013.3
20260905165004 33 194 3.2 14.5 0.00 0.00 0.00 47 1013.3
20260905164503 33 183 4.8 16.1 0.00 0.00 0.00 48 1013.4
20260905164003 32 175 8.0 16.1 0.00 0.00 0.00 51 1013.5
20260905163503 32 194 6.4 12.9 0.00 0.00 0.00 51 1013.5
20260905163004 32 187 6.4 16.1 0.00 0.00 0.00 50 1013.7
20260905162503 32 174 8.0 17.7 0.00 0.00 0.00 50 1013.7
20260905162003 32 170 9.7 19.3 0.00 0.00 0.00 49 1013.7
20260905161504 32 160 6.4 19.3 0.00 0.00 0.00 51 1013.6
20260905161005 32 147 3.2 16.1 0.00 0.00 0.00 51 1013.7
20260905160504 31 151 3.2 16.1 0.00 0.00 0.00 52 1013.6
20260905160003 31 166 4.8 14.5 0.00 0.00 0.00 53 1013.5
20260905155503 31 162 6.4 19.3 0.00 0.00 0.00 52 1013.6
20260905155004 31 163 6.4 19.3 0.00 0.00 0.00 55 1013.6
20260905154505 30 163 8.0 16.1 0.00 0.00 0.00 55 1013.5
20260905154003 30 171 8.0 20.9 0.00 0.00 0.00 55 1013.6
20260905153503 30 173 6.4 20.9 0.00 0.00 0.00 56 1013.6
20260905153004 30 164 8.0 17.7 0.00 0.00 0.00 57 1013.7
20260905152503 29 177 9.7 19.3 0.00 0.00 0.00 58 1013.8
20260905152003 29 182 8.0 22.5 0.00 0.00 0.00 56 1013.8
20260905151505 28 197 4.8 22.5 0.00 0.00 0.00 58 1013.8
20260905151004 28 207 6.4 22.5 0.00 0.00 0.00 58 1013.8
20260905150506 28 200 6.4 17.7 0.00 0.00 0.00 61 1013.7
20260905150003 28 192 6.4 17.7 0.00 0.00 0.00 61 1013.8
20260905145503 27 181 6.4 17.7 0.00 0.00 0.00 62 1013.8
20260905145004 27 172 4.8 17.7 0.00 0.00 0.00 62 1013.8
20260905144504 27 156 6.4 19.3 0.00 0.00 0.00 62 1013.8
20260905144003 26 155 8.0 19.3 0.00 0.00 0.00 64 1013.9
20260905143503 26 151 9.7 25.7 0.00 0.00 0.00 65 1013.9
20260905143004 26 139 12.9 27.4 0.00 0.00 0.00 66 1013.9
20260905142505 25 139 12.9 27.4 0.00 0.00 0.00 68 1014.0
20260905142004 25 153 9.7 24.1 0.00 0.00 0.00 69 1014.0
20260905141504 25 165 8.0 17.7 0.00 0.00 0.00 70 1014.0
20260905141003 24 152 8.0 20.9 0.00 0.00 0.00 71 1014.0
20260905140504 24 141 8.0 20.9 0.00 0.00 0.00 72 1014.0
20260905140004 24 138 8.0 19.3 0.00 0.00 0.00 73 1014.1
20260905135505 23 133 6.4 16.1 0.00 0.00 0.00 74 1014.0
20260905135004 23 138 6.4 16.1 0.00 0.00 0.00 74 1014.1
20260905134503 23 148 6.4 16.1 0.00 0.00 0.00 74 1014.2
20260905134003 23 152 8.0 16.1 0.00 0.00 0.00 74 1014.2
20260905133504 23 150 6.4 16.1 0.00 0.00 0.00 75 1014.2
20260905133003 23 147 4.8 19.3 0.00 0.00 0.00 75 1014.1
20260905132503 23 150 6.4 19.3 0.00 0.00 0.00 75 1014.2
20260905132003 23 146 6.4 16.1 0.00 0.00 0.00 76 1014.2
20260905131504 23 136 8.0 17.7 0.00 0.00 0.00 76 1014.2
20260905131003 22 141 8.0 17.7 0.00 0.00 0.00 76 1014.2
20260905130503 22 145 9.7 20.9 0.00 0.00 0.00 77 1014.3
20260905130004 22 136 8.0 20.9 0.00 0.00 0.00 77 1014.4
20260905125505 22 129 6.4 14.5 0.00 0.00 0.00 78 1014.3
20260905125003 22 125 6.4 16.1 0.00 0.00 0.00 78 1014.3
20260905124503 22 134 4.8 16.1 0.00 0.00 0.00 78 1014.2
20260905124004 22 154 4.8 14.5 0.00 0.00 0.00 78 1014.2
20260905123504 22 135 8.0 16.1 0.00 0.00 0.00 78 1014.0
20260905123004 22 129 8.0 17.7 0.00 0.00 0.00 78 1014.0
20260905122503 22 137 8.0 17.7 0.00 0.00 0.00 78 1014.1
20260905122004 22 131 8.0 16.1 0.00 0.00 0.00 78 1014.2
20260905121503 22 113 9.7 24.1 0.00 0.00 0.00 78 1014.2
20260905121004 22 111 11.3 24.1 0.00 0.00 0.00 79 1014.2
20260905120504 22 113 9.7 24.1 0.00 0.00 0.00 79 1014.2
20260905120003 22 108 8.0 17.7 0.00 0.00 0.00 79 1014.1
20260905115503 22 112 9.7 17.7 0.00 0.00 0.00 79 1014.0
20260905115005 22 108 11.3 20.9 0.00 0.00 0.00 80 1014.0
20260905114504 22 102 9.7 20.9 0.00 0.00 0.00 80 1013.9
20260905114003 22 109 9.7 17.7 0.00 0.00 0.00 80 1013.9
20260905113503 22 112 9.7 17.7 0.00 0.00 0.00 81 1013.9
20260905113004 23 105 11.3 24.1 0.00 0.00 0.00 82 1013.7
20260905112504 23 106 9.7 24.1 0.00 0.00 0.00 82 1013.8
20260905112004 23 108 6.4 24.1 0.00 0.00 0.00 84 1013.7
20260905111503 23 99 6.4 24.1 0.00 0.00 0.00 85 1013.5
20260905111003 23 90 9.7 33.8 0.00 0.00 0.00 85 1013.6
20260905110504 24 88 9.7 33.8 0.00 0.00 0.00 87 1013.4
20260905110004 24 87 6.4 22.5 0.00 0.00 0.00 87 1013.4
20260905105505 24 81 1.6 20.9 0.00 0.00 0.00 87 1013.2
20260905105003 24 72 0.0 20.9 0.00 0.00 0.00 87 1013.2
20260905104504 24 278 0.0 1.6 0.00 0.00 0.00 86 1012.6
20260905104003 23 0 0.0 0.0 0.00 0.00 0.00 86 1012.5
20260905103503 24 0 0.0 0.0 0.00 0.00 0.00 86 1012.4
20260905103004 24 0 0.0 0.0 0.00 0.00 0.00 86 1012.5
20260905102505 24 0 0.0 0.0 0.00 0.00 0.00 86 1012.5
20260905102003 24 0 0.0 0.0 0.00 0.00 0.00 86 1012.5
20260905101503 24 0 0.0 0.0 0.00 0.00 0.00 86 1012.5
20260905101003 24 0 0.0 0.0 0.00 0.00 0.00 86 1012.4
20260905100503 24 0 0.0 0.0 0.00 0.00 0.00 86 1012.3
20260905100004 24 0 0.0 0.0 0.00 0.00 0.00 86 1012.2
20260905095504 24 0 0.0 0.0 0.00 0.00 0.00 86 1012.2
20260905095003 24 0 0.0 0.0 0.00 0.00 0.00 86 1012.3
20260905094503 24 0 0.0 0.0 0.00 0.00 0.00 86 1012.3
20260905094004 24 0 0.0 0.0 0.00 0.00 0.00 86 1012.3
20260905093505 24 0 0.0 0.0 0.00 0.00 0.00 86 1012.3
20260905093003 24 0 0.0 0.0 0.00 0.00 0.00 86 1012.4
20260905092503 24 0 0.0 0.0 0.00 0.00 0.00 86 1012.3
20260905092005 24 0 0.0 0.0 0.00 0.00 0.00 85 1012.2
20260905091504 24 0 0.0 0.0 0.00 0.00 0.00 86 1012.3
20260905091004 24 278 0.0 3.2 0.00 0.00 0.00 85 1012.3
20260905090503 24 278 0.0 4.8 0.00 0.00 0.00 85 1012.1
20260905090003 24 278 0.0 4.8 0.00 0.00 0.00 85 1012.1
20260905085504 24 0 0.0 0.0 0.00 0.00 0.00 85 1012.1
20260905085004 24 0 0.0 0.0 0.00 0.00 0.00 85 1012.2
20260905084503 24 0 0.0 0.0 0.00 0.00 0.00 85 1012.3
20260905084003 24 0 0.0 0.0 0.00 0.00 0.00 85 1012.4
20260905083503 24 0 0.0 0.0 0.00 0.00 0.00 85 1012.3
20260905083004 25 0 0.0 0.0 0.00 0.00 0.00 85 1012.2
20260905082504 25 0 0.0 0.0 0.00 0.00 0.00 85 1012.2
20260905082005 25 0 0.0 0.0 0.00 0.00 0.00 84 1012.2
20260905081503 25 0 0.0 0.0 0.00 0.00 0.00 84 1012.1
20260905081003 25 0 0.0 0.0 0.00 0.00 0.00 84 1012.1
20260905080503 25 278 0.0 1.6 0.00 0.00 0.00 84 1011.9
20260905080005 25 278 0.0 4.8 0.00 0.00 0.00 84 1011.8
20260905075503 25 278 1.6 9.7 0.00 0.00 0.00 84 1011.6
20260905075003 25 278 0.0 9.7 0.00 0.00 0.00 84 1011.6
20260905074504 25 0 0.0 0.0 0.00 0.00 0.00 84 1011.5
20260905074005 25 0 0.0 0.0 0.00 0.00 0.00 84 1011.6
20260905073505 25 0 0.0 0.0 0.00 0.00 0.00 84 1011.5
20260905073003 25 0 0.0 0.0 0.00 0.00 0.00 84 1011.5
20260905072503 25 0 0.0 0.0 0.00 0.00 0.00 84 1011.6
20260905072003 25 0 0.0 0.0 0.00 0.00 0.00 84 1011.5
20260905071506 25 0 0.0 0.0 0.00 0.00 0.00 84 1011.6
20260905071004 25 0 0.0 0.0 0.00 0.00 0.00 83 1011.6
20260905070503 25 0 0.0 0.0 0.00 0.00 0.00 83 1011.6
20260905070003 25 0 0.0 0.0 0.00 0.00 0.00 83 1011.7
20260905065503 25 0 0.0 0.0 0.00 0.00 0.00 83 1011.7
20260905065004 25 0 0.0 0.0 0.00 0.00 0.00 83 1011.8
20260905064505 25 0 0.0 0.0 0.00 0.00 0.00 83 1011.8
20260905064003 25 0 0.0 0.0 0.00 0.00 0.00 83 1011.9
20260905063503 25 0 0.0 0.0 0.00 0.00 0.00 83 1012.1
20260905063004 25 0 0.0 0.0 0.00 0.00 0.00 83 1012.2
20260905062504 25 0 0.0 0.0 0.00 0.00 0.00 83 1012.3
20260905062003 25 0 0.0 0.0 0.00 0.00 0.00 83 1012.4
20260905061504 25 0 0.0 0.0 0.00 0.00 0.00 83 1012.5
20260905061003 25 0 0.0 0.0 0.00 0.00 0.00 83 1012.5
20260905060503 25 0 0.0 0.0 0.00 0.00 0.00 83 1012.5
20260905060004 25 0 0.0 0.0 0.00 0.00 0.00 83 1012.5
20260905055504 25 0 0.0 0.0 0.00 0.00 0.00 83 1012.4
20260905055003 25 0 0.0 0.0 0.00 0.00 0.00 83 1012.6
20260905054504 25 279 0.0 4.8 0.00 0.00 0.00 83 1012.7
20260905054003 25 278 1.6 4.8 0.00 0.00 0.00 83 1012.7
20260905053504 25 278 1.6 4.8 0.00 0.00 0.00 83 1012.8
20260905053005 25 279 0.0 4.8 0.00 0.00 0.00 83 1012.9
20260905052504 25 0 0.0 0.0 0.00 0.00 0.00 83 1012.9
20260905052004 25 0 0.0 0.0 0.00 0.00 0.00 83 1012.9
20260905051504 25 0 0.0 0.0 0.00 0.00 0.00 83 1012.9
20260905051003 25 0 0.0 0.0 0.00 0.00 0.00 83 1012.9
20260905050503 25 0 0.0 0.0 0.00 0.00 0.00 82 1012.9
20260905050003 26 0 0.0 0.0 0.00 0.00 0.00 82 1012.9
20260905045505 26 0 0.0 0.0 0.00 0.00 0.00 82 1012.9
20260905045004 26 0 0.0 0.0 0.00 0.00 0.00 82 1012.9
20260905044504 26 0 0.0 0.0 0.00 0.00 0.00 82 1012.9
20260905044003 26 0 0.0 0.0 0.00 0.00 0.00 81 1012.9
20260905043503 26 279 0.0 3.2 0.00 0.00 0.00 81 1012.9
20260905043005 26 279 0.0 3.2 0.00 0.00 0.00 81 1012.9
20260905042503 26 0 0.0 0.0 0.00 0.00 0.00 81 1012.9
20260905042003 26 0 0.0 0.0 0.00 0.00 0.00 81 1013.0
20260905041503 26 0 0.0 0.0 0.00 0.00 0.00 80 1013.0
20260905041003 26 0 0.0 0.0 0.00 0.00 0.00 80 1013.1
20260905040504 26 0 0.0 0.0 0.00 0.00 0.00 80 1013.1
20260905040003 26 0 0.0 0.0 0.00 0.00 0.00 80 1013.1
20260905035503 26 0 0.0 0.0 0.00 0.00 0.00 80 1013.1
20260905035004 26 0 0.0 0.0 0.00 0.00 0.00 80 1013.1
20260905034503 26 0 0.0 0.0 0.00 0.00 0.00 79 1013.1
20260905034005 26 0 0.0 0.0 0.00 0.00 0.00 79 1013.2
20260905033504 26 0 0.0 0.0 0.00 0.00 0.00 78 1013.2
20260905033003 26 0 0.0 0.0 0.00 0.00 0.00 78 1013.2
20260905032503 26 0 0.0 0.0 0.00 0.00 0.00 78 1013.1
20260905032003 27 0 0.0 0.0 0.00 0.00 0.00 78 1013.2
20260905031503 27 0 0.0 0.0 0.00 0.00 0.00 78 1013.2
20260905031004 27 0 0.0 0.0 0.00 0.00 0.00 78 1013.2
20260905030504 27 279 0.0 1.6 0.00 0.00 0.00 78 1013.2
20260905030003 27 279 1.6 4.8 0.00 0.00 0.00 77 1013.1
20260905025504 27 278 1.6 4.8 0.00 0.00 0.00 77 1013.1
20260905025004 27 278 1.6 4.8 0.00 0.00 0.00 77 1013.1
20260905024504 27 279 0.0 1.6 0.00 0.00 0.00 76 1013.0
20260905024006 27 279 0.0 1.6 0.00 0.00 0.00 76 1013.0
20260905023504 27 279 0.0 1.6 0.00 0.00 0.00 76 1012.9
20260905023003 27 0 0.0 0.0 0.00 0.00 0.00 76 1012.9
20260905022503 27 0 0.0 0.0 0.00 0.00 0.00 75 1012.9
20260905022004 27 0 0.0 0.0 0.00 0.00 0.00 75 1012.8
20260905021505 27 0 0.0 0.0 0.00 0.00 0.00 75 1012.8
20260905021005 28 0 0.0 0.0 0.00 0.00 0.00 74 1012.9
20260905020503 28 0 0.0 0.0 0.00 0.00 0.00 74 1012.8
20260905020003 28 0 0.0 0.0 0.00 0.00 0.00 73 1012.8
20260905015503 28 0 0.0 0.0 0.00 0.00 0.00 73 1012.8
20260905015005 28 0 0.0 0.0 0.00 0.00 0.00 73 1012.7
20260905014504 28 0 0.0 0.0 0.00 0.00 0.00 72 1012.7
20260905014005 28 0 0.0 0.0 0.00 0.00 0.00 71 1012.7
20260905013503 28 279 0.0 1.6 0.00 0.00 0.00 71 1012.7
20260905013004 28 279 0.0 1.6 0.00 0.00 0.00 71 1012.7
20260905012503 28 279 0.0 1.6 0.00 0.00 0.00 70 1012.7
20260905012004 29 279 0.0 1.6 0.00 0.00 0.00 69 1012.6
20260905011504 29 279 0.0 3.2 0.00 0.00 0.00 69 1012.5
20260905011004 29 279 0.0 3.2 0.00 0.00 0.00 69 1012.6
20260905010503 30 279 0.0 3.2 0.00 0.00 0.00 69 1012.6
20260905010003 30 0 0.0 0.0 0.00 0.00 0.00 68 1012.5
20260905005505 30 0 0.0 0.0 0.00 0.00 0.00 67 1012.5
20260905005004 30 279 0.0 1.6 0.00 0.00 0.00 66 1012.5
20260905004503 30 279 0.0 1.6 0.00 0.00 0.00 66 1012.4
20260905004004 30 279 0.0 3.2 0.00 0.00 0.00 65 1012.4
20260905003504 30 279 0.0 3.2 0.00 0.00 0.00 65 1012.3
20260905003004 31 279 0.0 3.2 0.00 0.00 0.00 64 1012.3
20260905002504 31 279 0.0 3.2 0.00 0.00 0.00 63 1012.4
20260905002003 31 279 0.0 1.6 0.00 0.00 0.00 62 1012.5
20260905001504 31 278 0.0 3.2 0.00 0.00 0.00 62 1012.5
20260905001003 31 279 0.0 3.2 0.00 0.00 0.00 61 1012.6
20260905000504 32 279 0.0 3.2 0.00 0.00 0.00 60 1012.5
20260905000004 32 278 1.6 4.8 0.00 0.00 0.00 59 1012.6
20260904235503 32 279 1.6 9.7 0.00 0.00 0.00 59 1012.5
20260904235004 32 282 1.6 9.7 0.00 0.00 0.00 59 1012.5
20260904234504 32 280 1.6 6.4 0.00 0.00 0.00 58 1012.5
20260904234004 32 277 3.2 11.3 0.00 0.00 0.00 58 1012.6
20260904233503 33 287 3.2 12.9 0.00 0.00 0.00 56 1012.6
20260904233004 33 284 4.8 12.9 0.00 0.00 0.00 55 1012.5
20260904232503 33 280 3.2 12.9 0.00 0.00 0.00 55 1012.6
20260904232005 33 286 3.2 11.3 0.00 0.00 0.00 55 1012.5
20260904231503 33 287 3.2 11.3 0.00 0.00 0.00 54 1012.4
20260904231003 33 288 1.6 11.3 0.00 0.00 0.00 54 1012.3
20260904230505 33 310 1.6 11.3 0.00 0.00 0.00 53 1012.3
20260904230004 33 307 4.8 12.9 0.00 0.00 0.00 53 1012.3
20260904225503 33 287 4.8 12.9 0.00 0.00 0.00 50 1012.3
20260904225003 34 275 6.4 12.9 0.00 0.00 0.00 50 1012.3